GFSMA_prec_precacc6_195.txt.gz
Total_Precipitation_Accumulation
0.00 0.00 0.00 0.00 0.00 0.00 0.00 0.00 0.00 0.00 0.00 0.00 0.00 0.00 0.00 0.00 0.00 0.00 0.00 0.00 0.01 0.01 0.01 0.02 0.02 0.02 0.01 0.01 0.01 0.01 0.00 0.00 0.00 0.00 0.00 0.00 0.00 0.00 0.00 0.00 0.00 0.00 0.00
0.00 0.00 0.00 0.00 0.00 0.00 0.00 0.00 0.00 0.00 0.00 0.00 0.00 0.00 0.00 0.00 0.00 0.00 0.00 0.00 0.00 0.01 0.01 0.01 0.02 0.02 0.02 0.01 0.01 0.01 0.00 0.00 0.00 0.00 0.00 0.00 0.00 0.00 0.00 0.00 0.00 0.00 0.00
0.00 0.00 0.00 0.00 0.00 0.00 0.00 0.00 0.00 0.00 0.00 0.00 0.00 0.00 0.00 0.00 0.00 0.00 0.00 0.00 0.00 0.00 0.01 0.01 0.01 0.01 0.01 0.01 0.01 0.01 0.01 0.00 0.00 0.00 0.00 0.00 0.00 0.00 0.00 0.00 0.00 0.00 0.00
0.00 0.00 0.00 0.00 0.00 0.00 0.00 0.00 0.00 0.00 0.00 0.00 0.00 0.00 0.00 0.00 0.00 0.00 0.00 0.00 0.00 0.00 0.00 0.00 0.01 0.01 0.01 0.01 0.01 0.02 0.01 0.01 0.01 0.01 0.00 0.00 0.00 0.00 0.00 0.00 0.00 0.00 0.00
0.02 0.00 0.00 0.00 0.00 0.00 0.00 0.00 0.00 0.00 0.00 0.00 0.00 0.00 0.00 0.00 0.00 0.00 0.00 0.00 0.00 0.00 0.00 0.00 0.00 0.00 0.00 0.01 0.01 0.02 0.02 0.02 0.01 0.01 0.01 0.01 0.01 0.00 0.00 0.00 0.00 0.00 0.00
0.03 0.01 0.01 0.00 0.00 0.00 0.00 0.00 0.01 0.00 0.00 0.00 0.00 0.00 0.00 0.00 0.00 0.00 0.00 0.00 0.00 0.00 0.00 0.00 0.00 0.00 0.00 0.00 0.01 0.01 0.02 0.02 0.02 0.02 0.02 0.02 0.01 0.01 0.01 0.01 0.01 0.01 0.01
0.05 0.03 0.02 0.01 0.01 0.00 0.00 0.00 0.01 0.01 0.00 0.00 0.00 0.00 0.00 0.00 0.00 0.00 0.00 0.00 0.00 0.00 0.00 0.00 0.00 0.00 0.00 0.00 0.00 0.01 0.02 0.02 0.02 0.02 0.02 0.02 0.01 0.01 0.01 0.01 0.01 0.01 0.01
0.04 0.05 0.04 0.02 0.01 0.02 0.01 0.01 0.01 0.01 0.00 0.00 0.00 0.00 0.00 0.00 0.00 0.00 0.00 0.00 0.00 0.00 0.00 0.00 0.00 0.00 0.00 0.00 0.00 0.00 0.01 0.01 0.02 0.01 0.02 0.02 0.01 0.01 0.01 0.01 0.02 0.01 0.01
0.04 0.06 0.07 0.05 0.06 0.06 0.02 0.01 0.01 0.01 0.00 0.00 0.00 0.01 0.00 0.00 0.00 0.00 0.00 0.00 0.00 0.00 0.00 0.00 0.00 0.00 0.00 0.00 0.00 0.00 0.00 0.00 0.01 0.02 0.01 0.01 0.01 0.01 0.01 0.01 0.01 0.01 0.02
0.04 0.05 0.08 0.05 0.05 0.06 0.03 0.03 0.03 0.02 0.00 0.01 0.00 0.01 0.00 0.00 0.00 0.00 0.00 0.00 0.00 0.00 0.00 0.00 0.00 0.00 0.00 0.00 0.00 0.00 0.00 0.00 0.00 0.00 0.00 0.00 0.00 0.00 0.00 0.00 0.01 0.01 0.01
0.04 0.05 0.06 0.06 0.09 0.07 0.04 0.05 0.04 0.03 0.01 0.01 0.01 0.02 0.00 0.00 0.00 0.00 0.00 0.00 0.00 0.00 0.00 0.00 0.00 0.00 0.00 0.00 0.00 0.00 0.00 0.00 0.00 0.00 0.00 0.00 0.00 0.00 0.00 0.00 0.00 0.01 0.02
0.03 0.05 0.08 0.11 0.14 0.10 0.06 0.05 0.04 0.04 0.03 0.02 0.01 0.01 0.00 0.00 0.00 0.00 0.00 0.00 0.00 0.00 0.00 0.00 0.00 0.00 0.00 0.00 0.00 0.00 0.00 0.00 0.00 0.00 0.00 0.00 0.00 0.00 0.00 0.00 0.00 0.00 0.01
0.03 0.03 0.08 0.13 0.18 0.16 0.12 0.08 0.06 0.07 0.06 0.03 0.02 0.01 0.00 0.00 0.00 0.00 0.00 0.00 0.01 0.01 0.00 0.00 0.00 0.00 0.00 0.00 0.00 0.00 0.00 0.00 0.00 0.00 0.00 0.00 0.00 0.00 0.00 0.00 0.00 0.00 0.00
0.01 0.02 0.06 0.08 0.14 0.18 0.19 0.18 0.10 0.08 0.08 0.05 0.02 0.02 0.01 0.00 0.00 0.00 0.00 0.01 0.03 0.02 0.03 0.01 0.00 0.00 0.00 0.00 0.00 0.00 0.00 0.00 0.00 0.00 0.00 0.00 0.00 0.00 0.00 0.00 0.00 0.00 0.00
0.01 0.02 0.05 0.10 0.12 0.17 0.19 0.22 0.17 0.12 0.10 0.07 0.05 0.03 0.02 0.01 0.01 0.01 0.01 0.00 0.01 0.04 0.04 0.01 0.00 0.00 0.00 0.00 0.00 0.00 0.00 0.00 0.00 0.00 0.00 0.00 0.00 0.00 0.00 0.00 0.00 0.00 0.00
0.04 0.05 0.09 0.14 0.16 0.22 0.27 0.27 0.24 0.18 0.19 0.19 0.13 0.10 0.05 0.03 0.03 0.04 0.04 0.02 0.03 0.05 0.05 0.03 0.01 0.00 0.00 0.00 0.00 0.00 0.00 0.00 0.00 0.00 0.00 0.00 0.00 0.00 0.00 0.00 0.00 0.00 0.00
0.09 0.11 0.15 0.20 0.21 0.22 0.29 0.31 0.31 0.18 0.12 0.10 0.08 0.06 0.03 0.02 0.02 0.03 0.03 0.02 0.01 0.02 0.02 0.02 0.01 0.00 0.00 0.00 0.00 0.00 0.00 0.00 0.00 0.00 0.00 0.00 0.00 0.00 0.00 0.00 0.00 0.00 0.00
0.25 0.21 0.24 0.29 0.31 0.35 0.37 0.32 0.35 0.26 0.13 0.09 0.07 0.05 0.05 0.03 0.03 0.04 0.05 0.05 0.05 0.05 0.04 0.06 0.04 0.02 0.02 0.02 0.01 0.00 0.00 0.00 0.00 0.00 0.00 0.00 0.00 0.00 0.00 0.00 0.00 0.00 0.00
0.74 0.66 0.48 0.48 0.49 0.51 0.53 0.52 0.51 0.41 0.21 0.18 0.19 0.16 0.16 0.13 0.12 0.12 0.15 0.18 0.17 0.12 0.06 0.07 0.06 0.02 0.02 0.01 0.00 0.00 0.00 0.00 0.00 0.00 0.00 0.00 0.00 0.00 0.00 0.00 0.00 0.00 0.00
0.46 0.63 0.67 0.64 0.62 0.68 0.67 0.71 0.61 0.53 0.46 0.34 0.29 0.23 0.20 0.21 0.22 0.19 0.18 0.18 0.14 0.05 0.02 0.02 0.01 0.00 0.00 0.00 0.00 0.00 0.00 0.00 0.00 0.00 0.00 0.00 0.00 0.00 0.00 0.00 0.00 0.00 0.00
0.22 0.32 0.47 0.53 0.51 0.52 0.45 0.46 0.44 0.50 0.51 0.48 0.40 0.31 0.29 0.27 0.26 0.23 0.20 0.15 0.07 0.01 0.00 0.01 0.00 0.01 0.00 0.00 0.00 0.00 0.00 0.00 0.00 0.00 0.00 0.00 0.00 0.00 0.00 0.00 0.00 0.00 0.00
0.23 0.21 0.23 0.26 0.27 0.26 0.28 0.24 0.26 0.32 0.45 0.60 0.67 0.52 0.39 0.34 0.29 0.22 0.15 0.08 0.02 0.00 0.00 0.00 0.00 0.00 0.00 0.00 0.00 0.00 0.00 0.00 0.00 0.00 0.00 0.00 0.00 0.00 0.00 0.00 0.00 0.00 0.00
0.27 0.25 0.22 0.21 0.26 0.26 0.37 0.36 0.29 0.26 0.29 0.30 0.37 0.42 0.38 0.31 0.21 0.12 0.06 0.02 0.00 0.00 0.00 0.00 0.00 0.00 0.00 0.00 0.00 0.00 0.00 0.00 0.00 0.00 0.00 0.00 0.00 0.00 0.00 0.00 0.00 0.00 0.00
0.34 0.39 0.37 0.39 0.36 0.37 0.46 0.45 0.42 0.35 0.30 0.23 0.21 0.18 0.17 0.19 0.13 0.06 0.03 0.00 0.00 0.00 0.00 0.00 0.00 0.00 0.00 0.00 0.00 0.00 0.00 0.00 0.00 0.00 0.00 0.00 0.00 0.00 0.00 0.00 0.00 0.00 0.00
0.43 0.49 0.52 0.49 0.52 0.54 0.44 0.35 0.34 0.33 0.25 0.20 0.19 0.16 0.15 0.13 0.08 0.04 0.02 0.01 0.00 0.00 0.00 0.00 0.00 0.00 0.00 0.00 0.00 0.00 0.00 0.00 0.00 0.00 0.00 0.00 0.00 0.00 0.00 0.00 0.00 0.00 0.00
0.40 0.38 0.45 0.47 0.42 0.46 0.44 0.36 0.33 0.23 0.21 0.21 0.20 0.16 0.13 0.08 0.05 0.03 0.01 0.00 0.00 0.00 0.00 0.00 0.00 0.00 0.00 0.00 0.00 0.00 0.00 0.00 0.00 0.00 0.00 0.00 0.00 0.00 0.00 0.00 0.00 0.00 0.00

GFSMA_prec_precacc6_201.txt.gz
Total_Precipitation_Accumulation
0.00 0.00 0.01 0.01 0.00 0.00 0.00 0.00 0.00 0.00 0.00 0.00 0.00 0.00 0.00 0.00 0.00 0.00 0.00 0.00 0.00 0.01 0.00 0.00 0.00 0.01 0.01 0.01 0.01 0.00 0.00 0.00 0.00 0.00 0.00 0.00 0.00 0.00 0.00 0.00 0.00 0.00 0.01
0.00 0.00 0.01 0.01 0.00 0.00 0.00 0.00 0.00 0.00 0.00 0.00 0.00 0.00 0.00 0.00 0.00 0.00 0.00 0.00 0.00 0.01 0.01 0.01 0.01 0.01 0.02 0.01 0.00 0.00 0.00 0.01 0.01 0.01 0.01 0.00 0.00 0.00 0.01 0.01 0.00 0.00 0.00
0.00 0.00 0.00 0.00 0.00 0.00 0.00 0.00 0.00 0.00 0.00 0.00 0.00 0.00 0.00 0.00 0.00 0.00 0.00 0.00 0.00 0.01 0.01 0.01 0.01 0.01 0.02 0.01 0.01 0.01 0.00 0.00 0.01 0.01 0.01 0.01 0.01 0.01 0.01 0.01 0.01 0.00 0.00
0.00 0.00 0.00 0.00 0.00 0.00 0.00 0.00 0.00 0.00 0.00 0.00 0.00 0.00 0.00 0.00 0.00 0.00 0.00 0.00 0.00 0.00 0.01 0.01 0.01 0.01 0.01 0.01 0.02 0.01 0.01 0.01 0.01 0.01 0.01 0.01 0.01 0.01 0.00 0.01 0.00 0.00 0.00
0.02 0.02 0.01 0.00 0.00 0.00 0.00 0.00 0.00 0.00 0.00 0.00 0.00 0.00 0.00 0.00 0.00 0.00 0.00 0.00 0.00 0.00 0.00 0.00 0.01 0.01 0.01 0.01 0.02 0.02 0.02 0.01 0.01 0.01 0.01 0.01 0.00 0.00 0.01 0.01 0.00 0.01 0.01
0.11 0.09 0.05 0.04 0.05 0.04 0.03 0.02 0.02 0.01 0.00 0.00 0.00 0.00 0.00 0.00 0.00 0.00 0.00 0.00 0.00 0.00 0.00 0.00 0.00 0.00 0.01 0.01 0.02 0.02 0.02 0.02 0.02 0.01 0.01 0.01 0.01 0.01 0.01 0.01 0.01 0.00 0.00
0.14 0.15 0.14 0.07 0.05 0.05 0.06 0.07 0.05 0.04 0.02 0.00 0.00 0.00 0.00 0.00 0.00 0.00 0.00 0.00 0.00 0.00 0.00 0.00 0.00 0.00 0.00 0.01 0.02 0.02 0.03 0.03 0.02 0.01 0.01 0.01 0.01 0.01 0.01 0.01 0.00 0.01 0.01
0.15 0.14 0.18 0.17 0.14 0.09 0.08 0.07 0.07 0.07 0.05 0.02 0.01 0.01 0.00 0.00 0.00 0.00 0.00 0.00 0.00 0.00 0.00 0.00 0.00 0.00 0.00 0.00 0.00 0.01 0.02 0.02 0.02 0.02 0.01 0.01 0.01 0.00 0.00 0.00 0.00 0.00 0.00
0.14 0.17 0.20 0.22 0.23 0.21 0.15 0.09 0.09 0.10 0.09 0.06 0.03 0.05 0.04 0.02 0.00 0.00 0.00 0.00 0.00 0.00 0.00 0.00 0.00 0.00 0.00 0.00 0.00 0.00 0.01 0.01 0.02 0.02 0.01 0.00 0.00 0.00 0.00 0.00 0.00 0.00 0.00
0.04 0.04 0.08 0.12 0.16 0.19 0.18 0.17 0.12 0.08 0.11 0.16 0.12 0.05 0.02 0.01 0.01 0.01 0.00 0.00 0.00 0.00 0.00 0.00 0.00 0.01 0.01 0.01 0.00 0.00 0.00 0.00 0.00 0.00 0.00 0.00 0.00 0.00 0.00 0.00 0.00 0.00 0.00
0.02 0.04 0.07 0.11 0.17 0.24 0.22 0.23 0.22 0.22 0.22 0.23 0.18 0.13 0.11 0.11 0.09 0.06 0.03 0.01 0.00 0.00 0.00 0.00 0.00 0.00 0.00 0.00 0.00 0.00 0.00 0.00 0.00 0.00 0.00 0.00 0.00 0.00 0.00 0.00 0.00 0.00 0.00
0.00 0.00 0.01 0.03 0.07 0.14 0.19 0.27 0.31 0.35 0.37 0.37 0.31 0.21 0.25 0.21 0.16 0.12 0.06 0.05 0.04 0.01 0.00 0.00 0.00 0.00 0.00 0.00 0.00 0.00 0.00 0.00 0.00 0.00 0.00 0.00 0.00 0.00 0.00 0.00 0.00 0.00 0.00
0.00 0.00 0.00 0.00 0.02 0.04 0.07 0.12 0.20 0.21 0.27 0.39 0.42 0.33 0.30 0.26 0.20 0.23 0.19 0.16 0.12 0.04 0.02 0.01 0.00 0.00 0.00 0.00 0.00 0.00 0.00 0.00 0.00 0.00 0.00 0.00 0.00 0.00 0.00 0.00 0.00 0.00 0.00
0.00 0.00 0.00 0.00 0.00 0.01 0.02 0.10 0.16 0.17 0.17 0.22 0.27 0.24 0.23 0.24 0.25 0.31 0.30 0.28 0.22 0.15 0.08 0.03 0.00 0.00 0.00 0.00 0.00 0.00 0.00 0.00 0.00 0.00 0.00 0.00 0.00 0.00 0.00 0.00 0.00 0.00 0.00
0.00 0.00 0.00 0.00 0.01 0.01 0.02 0.04 0.10 0.13 0.16 0.18 0.23 0.25 0.20 0.16 0.17 0.23 0.27 0.26 0.22 0.23 0.17 0.06 0.01 0.01 0.02 0.01 0.01 0.01 0.01 0.01 0.01 0.01 0.01 0.00 0.00 0.00 0.00 0.00 0.00 0.00 0.00
0.00 0.00 0.00 0.00 0.00 0.01 0.01 0.02 0.06 0.08 0.13 0.17 0.18 0.21 0.24 0.19 0.15 0.15 0.22 0.24 0.23 0.22 0.22 0.16 0.10 0.06 0.09 0.08 0.04 0.02 0.02 0.03 0.02 0.01 0.01 0.00 0.00 0.00 0.00 0.00 0.00 0.00 0.00
0.00 0.00 0.00 0.00 0.00 0.00 0.00 0.01 0.05 0.20 0.22 0.19 0.20 0.20 0.23 0.21 0.21 0.15 0.13 0.15 0.15 0.20 0.29 0.27 0.15 0.08 0.10 0.11 0.08 0.04 0.04 0.03 0.02 0.02 0.01 0.00 0.00 0.00 0.00 0.00 0.00 0.00 0.00
0.00 0.00 0.00 0.00 0.00 0.00 0.02 0.06 0.08 0.21 0.27 0.29 0.27 0.20 0.20 0.24 0.25 0.21 0.15 0.16 0.21 0.20 0.21 0.27 0.22 0.15 0.13 0.10 0.10 0.07 0.04 0.02 0.01 0.01 0.00 0.00 0.00 0.00 0.00 0.00 0.00 0.00 0.00
0.00 0.00 0.00 0.00 0.00 0.03 0.07 0.12 0.17 0.29 0.35 0.29 0.29 0.33 0.31 0.26 0.29 0.32 0.23 0.18 0.18 0.26 0.34 0.31 0.24 0.24 0.21 0.17 0.15 0.08 0.06 0.03 0.01 0.01 0.00 0.00 0.00 0.00 0.00 0.00 0.00 0.00 0.00
0.00 0.00 0.00 0.00 0.02 0.06 0.08 0.17 0.33 0.47 0.61 0.59 0.49 0.36 0.37 0.40 0.31 0.22 0.28 0.29 0.19 0.22 0.30 0.32 0.30 0.26 0.24 0.24 0.13 0.06 0.05 0.02 0.01 0.00 0.00 0.00 0.00 0.00 0.00 0.00 0.00 0.00 0.00
0.00 0.00 0.00 0.02 0.06 0.13 0.17 0.22 0.37 0.47 0.51 0.64 0.69 0.65 0.57 0.50 0.50 0.41 0.30 0.35 0.43 0.45 0.40 0.42 0.42 0.35 0.29 0.31 0.23 0.10 0.03 0.01 0.00 0.00 0.00 0.00 0.00 0.00 0.00 0.00 0.00 0.00 0.00
0.02 0.02 0.03 0.08 0.13 0.14 0.24 0.27 0.32 0.38 0.52 0.43 0.49 0.60 0.63 0.68 0.61 0.57 0.54 0.43 0.37 0.43 0.40 0.31 0.32 0.31 0.29 0.20 0.15 0.09 0.03 0.01 0.00 0.00 0.00 0.00 0.00 0.00 0.00 0.00 0.00 0.00 0.00
0.04 0.04 0.05 0.07 0.08 0.12 0.22 0.28 0.26 0.26 0.30 0.42 0.42 0.47 0.66 0.75 0.72 0.63 0.55 0.51 0.44 0.33 0.26 0.24 0.19 0.16 0.17 0.17 0.12 0.08 0.02 0.00 0.00 0.00 0.00 0.00 0.00 0.00 0.00 0.00 0.00 0.00 0.00
0.05 0.05 0.04 0.06 0.07 0.13 0.17 0.25 0.35 0.27 0.25 0.36 0.38 0.37 0.38 0.51 0.53 0.56 0.53 0.45 0.40 0.35 0.32 0.22 0.14 0.11 0.07 0.04 0.02 0.01 0.01 0.00 0.00 0.00 0.00 0.00 0.00 0.00 0.00 0.00 0.00 0.00 0.00
0.03 0.05 0.05 0.07 0.09 0.13 0.15 0.16 0.20 0.31 0.26 0.29 0.28 0.24 0.28 0.29 0.27 0.30 0.31 0.34 0.32 0.28 0.25 0.20 0.16 0.14 0.11 0.06 0.03 0.01 0.00 0.00 0.00 0.00 0.00 0.00 0.00 0.00 0.00 0.00 0.00 0.00 0.00
0.08 0.05 0.05 0.07 0.09 0.12 0.15 0.16 0.17 0.16 0.24 0.24 0.29 0.23 0.28 0.27 0.25 0.24 0.19 0.18 0.22 0.23 0.19 0.18 0.15 0.14 0.11 0.04 0.00 0.00 0.00 0.00 0.00 0.00 0.00 0.00 0.00 0.00 0.00 0.00 0.00 0.00 0.00

GFSMA_prec_precacc6_204.txt.gz
Total_Precipitation_Accumulation
0.00 0.00 0.00 0.00 0.00 0.00 0.00 0.00 0.00 0.00 0.00 0.00 0.00 0.00 0.00 0.00 0.00 0.00 0.00 0.00 0.00 0.00 0.00 0.00 0.00 0.01 0.01 0.01 0.00 0.00 0.00 0.00 0.00 0.00 0.00 0.00 0.00 0.00 0.00 0.00 0.00 0.00 0.01
0.00 0.00 0.00 0.00 0.00 0.00 0.00 0.00 0.00 0.00 0.00 0.00 0.00 0.00 0.00 0.00 0.00 0.00 0.00 0.00 0.00 0.00 0.00 0.00 0.00 0.01 0.01 0.01 0.00 0.00 0.00 0.00 0.01 0.00 0.00 0.00 0.00 0.00 0.01 0.01 0.00 0.00 0.00
0.00 0.00 0.00 0.00 0.00 0.00 0.00 0.00 0.00 0.00 0.00 0.00 0.00 0.00 0.00 0.00 0.00 0.00 0.00 0.00 0.00 0.00 0.00 0.00 0.00 0.01 0.02 0.01 0.01 0.01 0.00 0.01 0.01 0.01 0.01 0.01 0.01 0.01 0.01 0.01 0.00 0.00 0.00
0.00 0.00 0.00 0.00 0.00 0.00 0.00 0.00 0.00 0.00 0.00 0.00 0.00 0.00 0.00 0.00 0.00 0.00 0.00 0.00 0.00 0.00 0.00 0.01 0.01 0.01 0.01 0.01 0.01 0.01 0.01 0.01 0.01 0.01 0.01 0.01 0.01 0.01 0.01 0.01 0.01 0.01 0.00
0.04 0.03 0.02 0.02 0.02 0.01 0.01 0.00 0.00 0.00 0.00 0.00 0.00 0.00 0.00 0.00 0.00 0.00 0.00 0.00 0.00 0.00 0.00 0.00 0.01 0.01 0.01 0.01 0.02 0.02 0.01 0.02 0.02 0.01 0.01 0.01 0.01 0.01 0.01 0.01 0.01 0.01 0.00
0.10 0.12 0.09 0.08 0.08 0.07 0.07 0.06 0.06 0.05 0.04 0.02 0.01 0.00 0.00 0.00 0.00 0.00 0.00 0.00 0.00 0.00 0.00 0.00 0.00 0.00 0.01 0.02 0.02 0.02 0.02 0.02 0.02 0.02 0.02 0.01 0.01 0.01 0.01 0.01 0.01 0.01 0.01
0.07 0.11 0.12 0.07 0.05 0.05 0.07 0.10 0.10 0.10 0.08 0.06 0.06 0.03 0.01 0.00 0.00 0.00 0.00 0.00 0.00 0.00 0.00 0.00 0.00 0.00 0.00 0.01 0.02 0.02 0.02 0.03 0.02 0.02 0.02 0.02 0.01 0.01 0.01 0.01 0.00 0.00 0.00
0.02 0.05 0.09 0.13 0.12 0.10 0.10 0.10 0.12 0.11 0.10 0.08 0.12 0.14 0.12 0.08 0.05 0.02 0.00 0.00 0.00 0.00 0.00 0.00 0.00 0.00 0.00 0.00 0.00 0.02 0.03 0.03 0.02 0.02 0.02 0.01 0.01 0.01 0.00 0.00 0.00 0.00 0.00
0.01 0.02 0.04 0.10 0.15 0.17 0.15 0.12 0.13 0.17 0.22 0.19 0.16 0.26 0.32 0.24 0.14 0.09 0.06 0.01 0.00 0.00 0.00 0.00 0.00 0.00 0.00 0.00 0.00 0.00 0.01 0.01 0.02 0.02 0.01 0.01 0.00 0.00 0.00 0.00 0.00 0.00 0.00
0.00 0.00 0.00 0.02 0.05 0.09 0.11 0.13 0.11 0.10 0.15 0.25 0.23 0.21 0.24 0.29 0.26 0.22 0.17 0.13 0.05 0.01 0.01 0.01 0.00 0.01 0.01 0.01 0.00 0.00 0.00 0.00 0.01 0.01 0.00 0.00 0.00 0.00 0.00 0.00 0.00 0.00 0.00
0.00 0.00 0.00 0.00 0.00 0.02 0.05 0.09 0.13 0.16 0.20 0.26 0.25 0.19 0.20 0.31 0.34 0.25 0.22 0.19 0.18 0.12 0.08 0.05 0.01 0.00 0.00 0.00 0.00 0.00 0.00 0.00 0.00 0.00 0.00 0.00 0.00 0.00 0.00 0.00 0.00 0.00 0.00
0.00 0.00 0.00 0.00 0.00 0.00 0.01 0.04 0.06 0.14 0.22 0.29 0.31 0.26 0.34 0.37 0.36 0.34 0.37 0.37 0.36 0.38 0.36 0.27 0.15 0.08 0.01 0.00 0.00 0.00 0.00 0.00 0.00 0.00 0.00 0.00 0.00 0.00 0.00 0.00 0.00 0.00 0.00
0.00 0.00 0.00 0.00 0.00 0.00 0.00 0.01 0.02 0.03 0.05 0.17 0.30 0.30 0.29 0.29 0.25 0.34 0.40 0.45 0.46 0.52 0.51 0.45 0.31 0.20 0.11 0.07 0.01 0.00 0.00 0.00 0.00 0.00 0.00 0.00 0.00 0.00 0.00 0.00 0.00 0.00 0.00
0.00 0.00 0.00 0.00 0.00 0.00 0.00 0.00 0.01 0.02 0.02 0.03 0.07 0.13 0.17 0.21 0.27 0.37 0.36 0.39 0.46 0.50 0.39 0.33 0.29 0.20 0.16 0.11 0.02 0.00 0.00 0.00 0.00 0.00 0.00 0.00 0.00 0.00 0.00 0.00 0.00 0.00 0.00
0.00 0.00 0.00 0.00 0.00 0.00 0.00 0.00 0.01 0.01 0.02 0.04 0.05 0.05 0.08 0.09 0.16 0.26 0.31 0.31 0.31 0.40 0.38 0.30 0.24 0.21 0.19 0.17 0.08 0.02 0.01 0.01 0.01 0.01 0.01 0.01 0.01 0.00 0.00 0.00 0.00 0.00 0.00
0.00 0.00 0.00 0.00 0.00 0.00 0.00 0.00 0.00 0.01 0.02 0.04 0.05 0.06 0.08 0.10 0.14 0.16 0.26 0.30 0.28 0.29 0.33 0.26 0.20 0.18 0.21 0.23 0.16 0.08 0.02 0.02 0.01 0.01 0.01 0.00 0.00 0.00 0.00 0.00 0.00 0.00 0.00
0.00 0.00 0.00 0.00 0.00 0.00 0.00 0.01 0.00 0.01 0.02 0.03 0.05 0.07 0.08 0.07 0.15 0.18 0.19 0.23 0.22 0.28 0.39 0.35 0.18 0.17 0.26 0.28 0.25 0.14 0.06 0.03 0.02 0.02 0.01 0.00 0.00 0.00 0.00 0.00 0.00 0.00 0.00
0.00 0.00 0.00 0.00 0.00 0.00 0.00 0.00 0.00 0.00 0.01 0.02 0.04 0.07 0.09 0.11 0.14 0.20 0.26 0.29 0.28 0.24 0.26 0.30 0.24 0.18 0.28 0.40 0.32 0.17 0.08 0.02 0.01 0.01 0.01 0.00 0.00 0.00 0.00 0.00 0.00 0.00 0.00
0.00 0.00 0.00 0.00 0.00 0.00 0.00 0.00 0.00 0.00 0.00 0.01 0.03 0.08 0.08 0.10 0.13 0.20 0.24 0.21 0.22 0.28 0.33 0.25 0.18 0.27 0.42 0.43 0.42 0.34 0.16 0.06 0.03 0.02 0.01 0.00 0.00 0.00 0.00 0.00 0.00 0.00 0.00
0.00 0.00 0.00 0.00 0.00 0.00 0.00 0.00 0.01 0.07 0.12 0.13 0.11 0.09 0.09 0.16 0.14 0.13 0.21 0.33 0.22 0.21 0.28 0.28 0.27 0.35 0.49 0.61 0.44 0.27 0.22 0.15 0.05 0.03 0.02 0.01 0.00 0.00 0.00 0.00 0.00 0.00 0.00
0.00 0.00 0.00 0.00 0.01 0.02 0.03 0.04 0.09 0.12 0.14 0.20 0.31 0.34 0.34 0.30 0.30 0.24 0.23 0.24 0.31 0.33 0.27 0.31 0.43 0.50 0.57 0.64 0.59 0.38 0.17 0.13 0.08 0.03 0.02 0.01 0.00 0.00 0.00 0.00 0.00 0.00 0.00
0.00 0.00 0.01 0.03 0.04 0.03 0.08 0.07 0.13 0.17 0.18 0.20 0.21 0.22 0.37 0.57 0.52 0.45 0.42 0.38 0.29 0.33 0.34 0.27 0.36 0.44 0.50 0.41 0.31 0.23 0.22 0.21 0.17 0.08 0.02 0.02 0.01 0.00 0.00 0.00 0.00 0.00 0.00
0.00 0.01 0.03 0.04 0.03 0.02 0.07 0.05 0.08 0.09 0.10 0.15 0.23 0.26 0.36 0.44 0.48 0.51 0.56 0.50 0.40 0.30 0.29 0.37 0.36 0.29 0.34 0.41 0.35 0.32 0.22 0.10 0.06 0.06 0.04 0.04 0.02 0.00 0.00 0.00 0.00 0.00 0.00
0.01 0.02 0.02 0.02 0.01 0.03 0.05 0.05 0.09 0.08 0.11 0.23 0.28 0.20 0.24 0.33 0.36 0.45 0.54 0.65 0.56 0.40 0.38 0.44 0.40 0.34 0.24 0.22 0.16 0.14 0.13 0.11 0.07 0.08 0.04 0.03 0.01 0.00 0.00 0.00 0.00 0.00 0.00
0.01 0.02 0.02 0.02 0.02 0.03 0.05 0.07 0.09 0.15 0.16 0.22 0.22 0.18 0.25 0.27 0.31 0.33 0.40 0.55 0.53 0.45 0.43 0.42 0.40 0.36 0.31 0.20 0.17 0.20 0.23 0.11 0.07 0.05 0.01 0.00 0.01 0.00 0.00 0.00 0.00 0.00 0.00
0.04 0.02 0.01 0.01 0.04 0.05 0.07 0.08 0.11 0.14 0.16 0.17 0.20 0.22 0.31 0.27 0.28 0.31 0.33 0.34 0.38 0.41 0.40 0.44 0.39 0.34 0.33 0.22 0.12 0.05 0.04 0.02 0.01 0.01 0.00 0.00 0.00 0.00 0.00 0.00 0.00 0.00 0.00

GFSMA_prec_precacc6_207.txt.gz
Total_Precipitation_Accumulation
0.00 0.00 0.00 0.00 0.00 0.00 0.00 0.00 0.00 0.00 0.00 0.00 0.00 0.00 0.00 0.00 0.00 0.00 0.00 0.00 0.00 0.00 0.00 0.00 0.00 0.00 0.00 0.01 0.00 0.00 0.00 0.00 0.00 0.00 0.00 0.00 0.00 0.00 0.00 0.00 0.00 0.00 0.00
0.00 0.00 0.00 0.00 0.00 0.00 0.00 0.00 0.00 0.00 0.00 0.00 0.00 0.00 0.00 0.00 0.00 0.00 0.00 0.00 0.00 0.00 0.00 0.00 0.00 0.00 0.01 0.00 0.00 0.00 0.00 0.00 0.00 0.00 0.00 0.00 0.00 0.00 0.00 0.00 0.00 0.00 0.01
0.00 0.01 0.01 0.00 0.00 0.00 0.00 0.00 0.00 0.00 0.00 0.00 0.00 0.00 0.00 0.00 0.00 0.00 0.00 0.00 0.00 0.00 0.00 0.00 0.00 0.01 0.01 0.01 0.00 0.00 0.00 0.01 0.01 0.01 0.00 0.01 0.01 0.01 0.01 0.00 0.00 0.01 0.01
0.00 0.00 0.00 0.00 0.00 0.00 0.00 0.00 0.00 0.00 0.00 0.00 0.00 0.00 0.00 0.00 0.00 0.00 0.00 0.00 0.00 0.00 0.00 0.00 0.00 0.01 0.01 0.01 0.01 0.01 0.01 0.01 0.01 0.01 0.01 0.01 0.01 0.01 0.01 0.01 0.01 0.01 0.00
0.03 0.02 0.02 0.02 0.02 0.01 0.01 0.00 0.00 0.00 0.00 0.00 0.00 0.00 0.00 0.00 0.00 0.00 0.00 0.00 0.00 0.00 0.00 0.00 0.00 0.01 0.01 0.01 0.01 0.02 0.01 0.01 0.01 0.01 0.01 0.01 0.01 0.01 0.01 0.01 0.01 0.01 0.00
0.04 0.08 0.08 0.06 0.04 0.04 0.04 0.05 0.04 0.05 0.04 0.02 0.01 0.01 0.01 0.01 0.00 0.00 0.00 0.00 0.00 0.00 0.00 0.00 0.00 0.00 0.01 0.01 0.01 0.02 0.02 0.02 0.01 0.02 0.02 0.01 0.01 0.01 0.01 0.01 0.01 0.01 0.01
0.03 0.04 0.05 0.04 0.03 0.02 0.03 0.04 0.06 0.07 0.07 0.07 0.08 0.05 0.03 0.02 0.01 0.00 0.00 0.00 0.00 0.00 0.00 0.00 0.00 0.00 0.00 0.01 0.01 0.02 0.02 0.02 0.02 0.02 0.02 0.02 0.01 0.01 0.01 0.01 0.00 0.00 0.00
0.00 0.00 0.01 0.02 0.04 0.05 0.05 0.05 0.06 0.07 0.07 0.07 0.13 0.17 0.16 0.11 0.07 0.03 0.02 0.02 0.01 0.01 0.01 0.01 0.01 0.01 0.00 0.00 0.01 0.02 0.02 0.02 0.02 0.02 0.02 0.01 0.01 0.01 0.00 0.00 0.00 0.00 0.00
0.00 0.00 0.00 0.00 0.00 0.02 0.04 0.05 0.04 0.08 0.14 0.14 0.14 0.25 0.33 0.26 0.15 0.11 0.11 0.10 0.11 0.10 0.08 0.07 0.06 0.05 0.00 0.00 0.00 0.01 0.01 0.02 0.01 0.01 0.01 0.01 0.01 0.00 0.00 0.00 0.00 0.00 0.00
0.00 0.00 0.00 0.00 0.00 0.00 0.00 0.01 0.03 0.04 0.05 0.11 0.12 0.16 0.24 0.31 0.29 0.24 0.19 0.16 0.14 0.13 0.11 0.09 0.07 0.06 0.05 0.03 0.01 0.00 0.00 0.00 0.01 0.02 0.01 0.00 0.00 0.00 0.00 0.00 0.00 0.00 0.00
0.00 0.00 0.00 0.00 0.00 0.00 0.00 0.00 0.00 0.01 0.02 0.05 0.09 0.07 0.11 0.23 0.30 0.23 0.22 0.21 0.24 0.22 0.19 0.16 0.16 0.17 0.16 0.13 0.09 0.05 0.01 0.00 0.00 0.01 0.01 0.01 0.00 0.00 0.00 0.00 0.00 0.00 0.00
0.00 0.00 0.00 0.00 0.00 0.00 0.00 0.00 0.00 0.00 0.00 0.01 0.04 0.07 0.12 0.18 0.23 0.24 0.33 0.34 0.35 0.41 0.45 0.43 0.35 0.26 0.23 0.21 0.19 0.19 0.10 0.02 0.00 0.00 0.01 0.01 0.00 0.00 0.00 0.00 0.00 0.00 0.00
0.00 0.00 0.00 0.00 0.00 0.00 0.00 0.00 0.00 0.00 0.01 0.01 0.02 0.02 0.04 0.06 0.09 0.15 0.26 0.35 0.39 0.54 0.58 0.56 0.47 0.38 0.32 0.31 0.30 0.26 0.17 0.09 0.02 0.00 0.00 0.00 0.00 0.00 0.00 0.00 0.00 0.00 0.00
0.00 0.00 0.00 0.00 0.00 0.00 0.00 0.00 0.00 0.01 0.01 0.01 0.02 0.02 0.04 0.04 0.08 0.12 0.11 0.19 0.34 0.46 0.42 0.38 0.33 0.26 0.27 0.29 0.30 0.31 0.22 0.14 0.09 0.06 0.01 0.01 0.00 0.00 0.00 0.00 0.00 0.00 0.00
0.00 0.00 0.00 0.00 0.00 0.00 0.00 0.00 0.01 0.01 0.01 0.01 0.01 0.02 0.04 0.04 0.07 0.10 0.11 0.12 0.17 0.34 0.40 0.36 0.33 0.30 0.31 0.44 0.44 0.29 0.16 0.13 0.09 0.07 0.03 0.01 0.02 0.01 0.00 0.00 0.00 0.00 0.00
0.00 0.00 0.00 0.00 0.00 0.00 0.01 0.01 0.01 0.00 0.01 0.01 0.01 0.02 0.04 0.06 0.07 0.10 0.11 0.12 0.12 0.17 0.25 0.21 0.20 0.26 0.34 0.50 0.53 0.40 0.23 0.19 0.14 0.05 0.01 0.00 0.00 0.00 0.00 0.00 0.00 0.00 0.00
0.00 0.00 0.00 0.00 0.00 0.01 0.01 0.02 0.01 0.01 0.01 0.01 0.01 0.02 0.03 0.04 0.08 0.11 0.14 0.15 0.14 0.14 0.19 0.18 0.14 0.19 0.36 0.58 0.65 0.41 0.25 0.26 0.21 0.11 0.09 0.04 0.01 0.00 0.00 0.00 0.00 0.00 0.00
0.00 0.00 0.00 0.01 0.01 0.01 0.01 0.01 0.00 0.00 0.01 0.01 0.01 0.02 0.03 0.06 0.09 0.11 0.21 0.22 0.13 0.10 0.13 0.18 0.14 0.15 0.30 0.47 0.51 0.38 0.32 0.21 0.16 0.14 0.10 0.06 0.03 0.02 0.00 0.00 0.00 0.00 0.00
0.00 0.00 0.00 0.00 0.00 0.00 0.00 0.01 0.01 0.01 0.01 0.01 0.01 0.01 0.01 0.02 0.06 0.13 0.16 0.13 0.18 0.20 0.17 0.13 0.10 0.16 0.35 0.42 0.55 0.57 0.44 0.25 0.18 0.17 0.14 0.08 0.04 0.02 0.00 0.00 0.00 0.00 0.00
0.00 0.00 0.00 0.00 0.00 0.01 0.01 0.00 0.00 0.01 0.01 0.01 0.01 0.01 0.01 0.01 0.03 0.06 0.11 0.16 0.17 0.20 0.23 0.29 0.15 0.19 0.33 0.50 0.51 0.55 0.55 0.42 0.30 0.20 0.14 0.09 0.05 0.02 0.00 0.00 0.00 0.00 0.00
0.00 0.00 0.00 0.00 0.00 0.00 0.01 0.01 0.02 0.02 0.02 0.03 0.04 0.06 0.10 0.14 0.11 0.11 0.13 0.10 0.16 0.23 0.22 0.13 0.20 0.26 0.35 0.47 0.55 0.46 0.31 0.37 0.37 0.20 0.14 0.09 0.04 0.02 0.01 0.00 0.00 0.00 0.00
0.00 0.00 0.00 0.00 0.00 0.00 0.03 0.01 0.01 0.03 0.02 0.06 0.09 0.08 0.16 0.29 0.24 0.22 0.19 0.18 0.20 0.20 0.20 0.15 0.14 0.19 0.23 0.23 0.24 0.26 0.34 0.38 0.43 0.30 0.16 0.15 0.06 0.04 0.02 0.00 0.00 0.00 0.00
0.00 0.00 0.00 0.00 0.00 0.01 0.03 0.01 0.01 0.02 0.04 0.06 0.11 0.13 0.11 0.11 0.20 0.27 0.41 0.35 0.21 0.27 0.24 0.21 0.22 0.17 0.20 0.27 0.31 0.36 0.29 0.17 0.12 0.16 0.15 0.19 0.10 0.06 0.03 0.01 0.00 0.00 0.00
0.00 0.00 0.00 0.00 0.00 0.01 0.01 0.00 0.01 0.01 0.04 0.10 0.13 0.07 0.08 0.10 0.15 0.20 0.33 0.53 0.43 0.29 0.32 0.30 0.35 0.37 0.31 0.33 0.30 0.24 0.25 0.30 0.25 0.25 0.17 0.18 0.12 0.05 0.01 0.00 0.00 0.00 0.00
0.00 0.00 0.00 0.00 0.00 0.00 0.01 0.01 0.02 0.04 0.06 0.11 0.11 0.11 0.14 0.15 0.19 0.20 0.23 0.36 0.43 0.45 0.45 0.42 0.42 0.46 0.47 0.47 0.53 0.60 0.63 0.37 0.30 0.31 0.16 0.10 0.10 0.04 0.02 0.01 0.00 0.00 0.00
0.01 0.00 0.00 0.00 0.01 0.00 0.01 0.02 0.03 0.07 0.08 0.08 0.11 0.17 0.23 0.20 0.17 0.19 0.23 0.26 0.29 0.39 0.47 0.56 0.52 0.51 0.54 0.49 0.32 0.14 0.13 0.09 0.10 0.16 0.10 0.07 0.08 0.04 0.03 0.01 0.00 0.00 0.00

GFSMA_prec_precacc6_210.txt.gz
Total_Precipitation_Accumulation
0.01 0.02 0.02 0.02 0.01 0.01 0.00 0.00 0.00 0.00 0.00 0.00 0.00 0.00 0.00 0.00 0.00 0.00 0.00 0.00 0.00 0.00 0.00 0.00 0.00 0.00 0.01 0.01 0.00 0.00 0.00 0.00 0.00 0.00 0.00 0.00 0.00 0.00 0.00 0.00 0.00 0.00 0.00
0.00 0.00 0.02 0.02 0.02 0.01 0.01 0.00 0.00 0.00 0.00 0.00 0.00 0.00 0.00 0.00 0.00 0.00 0.00 0.00 0.00 0.00 0.00 0.00 0.00 0.00 0.00 0.01 0.00 0.00 0.00 0.00 0.00 0.00 0.00 0.00 0.00 0.00 0.00 0.00 0.00 0.00 0.00
0.00 0.02 0.02 0.01 0.01 0.01 0.01 0.01 0.00 0.00 0.00 0.00 0.00 0.00 0.00 0.00 0.00 0.00 0.00 0.00 0.00 0.00 0.00 0.00 0.00 0.00 0.00 0.00 0.00 0.00 0.00 0.00 0.00 0.00 0.00 0.00 0.00 0.00 0.00 0.00 0.00 0.00 0.00
0.00 0.01 0.01 0.02 0.01 0.00 0.01 0.00 0.00 0.00 0.00 0.00 0.00 0.00 0.00 0.00 0.00 0.00 0.00 0.00 0.00 0.00 0.00 0.00 0.00 0.00 0.00 0.00 0.00 0.00 0.00 0.00 0.00 0.00 0.01 0.00 0.00 0.00 0.00 0.00 0.00 0.00 0.00
0.00 0.01 0.01 0.01 0.01 0.00 0.01 0.01 0.00 0.01 0.00 0.00 0.00 0.00 0.00 0.00 0.00 0.00 0.00 0.00 0.00 0.00 0.00 0.00 0.00 0.00 0.01 0.00 0.00 0.01 0.01 0.01 0.00 0.01 0.01 0.01 0.01 0.01 0.00 0.00 0.00 0.00 0.00
0.02 0.02 0.03 0.02 0.01 0.01 0.01 0.01 0.00 0.00 0.00 0.00 0.00 0.00 0.01 0.01 0.00 0.00 0.00 0.00 0.00 0.00 0.00 0.00 0.00 0.00 0.00 0.00 0.00 0.01 0.01 0.01 0.01 0.01 0.01 0.01 0.01 0.01 0.01 0.00 0.00 0.00 0.00
0.01 0.02 0.02 0.01 0.01 0.01 0.01 0.01 0.01 0.01 0.01 0.01 0.02 0.03 0.03 0.02 0.01 0.01 0.00 0.00 0.00 0.00 0.00 0.00 0.00 0.00 0.00 0.01 0.01 0.01 0.02 0.02 0.02 0.02 0.01 0.01 0.01 0.01 0.01 0.00 0.00 0.00 0.00
0.00 0.00 0.00 0.00 0.00 0.00 0.00 0.00 0.00 0.01 0.02 0.01 0.02 0.05 0.05 0.03 0.02 0.01 0.02 0.02 0.02 0.02 0.03 0.02 0.02 0.02 0.02 0.01 0.01 0.01 0.02 0.02 0.02 0.02 0.02 0.01 0.01 0.01 0.01 0.00 0.00 0.00 0.00
0.00 0.00 0.00 0.00 0.00 0.00 0.00 0.00 0.00 0.00 0.00 0.00 0.01 0.03 0.05 0.04 0.02 0.02 0.04 0.09 0.11 0.12 0.11 0.11 0.11 0.12 0.10 0.07 0.05 0.05 0.05 0.04 0.03 0.03 0.02 0.01 0.01 0.01 0.00 0.00 0.00 0.00 0.00
0.00 0.00 0.00 0.00 0.00 0.00 0.00 0.00 0.00 0.00 0.00 0.00 0.00 0.01 0.02 0.04 0.04 0.03 0.02 0.04 0.09 0.12 0.10 0.10 0.10 0.12 0.12 0.10 0.11 0.12 0.10 0.06 0.06 0.05 0.04 0.02 0.02 0.01 0.01 0.00 0.00 0.00 0.00
0.00 0.00 0.00 0.00 0.00 0.00 0.00 0.00 0.00 0.00 0.00 0.00 0.00 0.00 0.01 0.04 0.05 0.05 0.03 0.03 0.07 0.11 0.12 0.12 0.16 0.18 0.18 0.15 0.12 0.11 0.11 0.09 0.09 0.10 0.06 0.03 0.02 0.02 0.01 0.00 0.00 0.00 0.00
0.00 0.00 0.00 0.00 0.00 0.00 0.00 0.00 0.00 0.00 0.00 0.00 0.01 0.01 0.01 0.02 0.02 0.02 0.04 0.02 0.03 0.04 0.11 0.18 0.22 0.21 0.25 0.22 0.21 0.26 0.24 0.19 0.14 0.12 0.07 0.03 0.02 0.02 0.01 0.00 0.00 0.00 0.00
0.00 0.00 0.00 0.00 0.00 0.00 0.00 0.00 0.00 0.00 0.00 0.01 0.01 0.01 0.02 0.02 0.04 0.06 0.09 0.08 0.07 0.07 0.09 0.14 0.19 0.22 0.30 0.39 0.43 0.43 0.29 0.23 0.19 0.16 0.15 0.11 0.04 0.02 0.01 0.00 0.00 0.00 0.00
0.00 0.00 0.00 0.00 0.00 0.00 0.00 0.00 0.00 0.01 0.01 0.02 0.02 0.02 0.04 0.04 0.05 0.06 0.07 0.12 0.14 0.13 0.13 0.09 0.09 0.13 0.17 0.27 0.45 0.55 0.47 0.42 0.28 0.19 0.15 0.10 0.07 0.03 0.01 0.01 0.00 0.00 0.00
0.00 0.00 0.00 0.00 0.00 0.00 0.00 0.01 0.01 0.01 0.02 0.02 0.03 0.03 0.04 0.03 0.05 0.07 0.09 0.10 0.15 0.21 0.19 0.13 0.10 0.11 0.16 0.34 0.52 0.51 0.43 0.43 0.39 0.28 0.24 0.17 0.10 0.06 0.03 0.01 0.01 0.00 0.00
0.00 0.00 0.00 0.00 0.00 0.00 0.01 0.01 0.01 0.01 0.01 0.01 0.01 0.01 0.02 0.02 0.03 0.05 0.08 0.08 0.11 0.16 0.16 0.09 0.08 0.09 0.16 0.34 0.53 0.59 0.57 0.62 0.51 0.33 0.19 0.16 0.14 0.10 0.07 0.04 0.02 0.00 0.00
0.00 0.00 0.00 0.00 0.00 0.01 0.01 0.02 0.02 0.02 0.02 0.02 0.02 0.02 0.02 0.02 0.03 0.04 0.07 0.08 0.10 0.11 0.13 0.08 0.05 0.04 0.12 0.31 0.49 0.50 0.53 0.69 0.75 0.56 0.36 0.23 0.14 0.07 0.06 0.05 0.04 0.01 0.00
0.00 0.00 0.00 0.00 0.00 0.00 0.00 0.01 0.01 0.01 0.01 0.01 0.02 0.02 0.02 0.03 0.03 0.04 0.07 0.09 0.10 0.09 0.11 0.12 0.04 0.03 0.05 0.10 0.27 0.34 0.47 0.52 0.56 0.57 0.44 0.34 0.24 0.13 0.06 0.04 0.05 0.03 0.00
0.00 0.00 0.00 0.00 0.00 0.00 0.01 0.01 0.01 0.01 0.01 0.01 0.01 0.01 0.01 0.01 0.03 0.03 0.06 0.14 0.24 0.30 0.27 0.23 0.12 0.04 0.02 0.09 0.25 0.34 0.43 0.48 0.51 0.56 0.47 0.35 0.25 0.18 0.11 0.05 0.04 0.04 0.01
0.00 0.00 0.00 0.00 0.01 0.01 0.01 0.00 0.00 0.01 0.01 0.01 0.01 0.01 0.01 0.01 0.02 0.02 0.04 0.07 0.12 0.24 0.39 0.48 0.28 0.11 0.03 0.09 0.18 0.38 0.51 0.51 0.58 0.55 0.49 0.36 0.27 0.21 0.14 0.10 0.07 0.05 0.02
0.00 0.00 0.00 0.00 0.00 0.00 0.01 0.01 0.01 0.00 0.00 0.00 0.00 0.00 0.03 0.08 0.08 0.09 0.11 0.11 0.12 0.20 0.26 0.32 0.40 0.26 0.08 0.12 0.19 0.21 0.21 0.42 0.57 0.48 0.46 0.36 0.25 0.21 0.14 0.09 0.06 0.05 0.04
0.00 0.00 0.00 0.00 0.00 0.00 0.02 0.01 0.01 0.01 0.00 0.01 0.03 0.02 0.04 0.11 0.08 0.12 0.11 0.10 0.16 0.22 0.21 0.23 0.19 0.15 0.09 0.03 0.07 0.14 0.21 0.31 0.53 0.53 0.36 0.40 0.20 0.16 0.11 0.06 0.03 0.03 0.02
0.00 0.00 0.00 0.00 0.00 0.00 0.01 0.01 0.00 0.01 0.01 0.01 0.03 0.03 0.02 0.04 0.09 0.14 0.24 0.19 0.13 0.24 0.22 0.16 0.08 0.02 0.03 0.05 0.08 0.12 0.10 0.09 0.09 0.23 0.21 0.36 0.26 0.21 0.12 0.07 0.05 0.04 0.03
0.00 0.00 0.00 0.00 0.00 0.00 0.01 0.01 0.00 0.00 0.00 0.01 0.02 0.03 0.04 0.05 0.08 0.11 0.12 0.19 0.19 0.16 0.20 0.14 0.10 0.11 0.13 0.16 0.15 0.12 0.16 0.30 0.35 0.33 0.24 0.35 0.31 0.22 0.12 0.07 0.05 0.03 0.03
0.00 0.00 0.00 0.00 0.00 0.00 0.01 0.01 0.00 0.00 0.00 0.00 0.02 0.03 0.05 0.06 0.07 0.07 0.08 0.11 0.21 0.32 0.29 0.21 0.21 0.26 0.29 0.35 0.42 0.56 0.74 0.62 0.54 0.55 0.36 0.27 0.26 0.17 0.13 0.10 0.06 0.03 0.02
0.00 0.00 0.00 0.00 0.00 0.00 0.01 0.01 0.00 0.00 0.01 0.01 0.02 0.04 0.09 0.10 0.07 0.04 0.06 0.08 0.09 0.21 0.27 0.32 0.32 0.38 0.41 0.43 0.38 0.24 0.24 0.24 0.27 0.39 0.31 0.17 0.17 0.11 0.16 0.13 0.06 0.04 0.02